Time,TemperatureF,DewpointF,PressureIn,WindDirection,WindDirectionDegrees,WindSpeedMPH,WindSpeedGustMPH,Humidity,HourlyPrecipIn,Conditions,Clouds,dailyrainin,SoftwareType,DateUTC
2013-04-27 00:01:00,52.6,22.9,29.77,SW,221,0.0,0.0,31,0.00,,SCT230,0.00,VWS V14.01,2013-04-27 06:01:00,
2013-04-27 00:06:00,52.6,22.9,29.77,NW,323,0.0,3.0,31,0.00,,SCT230,0.00,VWS V14.01,2013-04-27 06:06:00,
2013-04-27 00:11:00,52.6,22.9,29.77,NW,306,0.0,3.0,31,0.00,,SCT230,0.00,VWS V14.01,2013-04-27 06:11:00,
2013-04-27 00:16:00,52.6,22.9,29.76,NNW,335,0.0,4.0,31,0.00,,SCT230,0.00,VWS V14.01,2013-04-27 06:16:00,
2013-04-27 00:21:00,52.6,22.9,29.76,NE,56,0.0,8.0,31,0.00,,SCT230,0.00,VWS V14.01,2013-04-27 06:21:00,
2013-04-27 00:26:00,52.5,22.8,29.76,North,356,9.0,11.0,31,0.00,,SCT230,0.00,VWS V14.01,2013-04-27 06:26:00,
2013-04-27 00:31:00,52.5,22.8,29.75,NW,306,1.0,1.0,31,0.00,,SCT230,0.00,VWS V14.01,2013-04-27 06:31:00,
2013-04-27 00:36:00,52.3,23.3,29.75,North,0,0.0,3.0,32,0.00,,SCT210,0.00,VWS V14.01,2013-04-27 06:36:00,
2013-04-27 00:41:00,52.5,22.8,29.75,North,350,0.0,4.0,31,0.00,,SCT210,0.00,VWS V14.01,2013-04-27 06:41:00,
2013-04-27 00:46:00,52.5,22.8,29.75,ESE,112,2.0,9.0,31,0.00,,SCT210,0.00,VWS V14.01,2013-04-27 06:46:00,
2013-04-27 00:51:00,52.5,22.8,29.75,NW,313,0.0,9.0,31,0.00,,SCT210,0.00,VWS V14.01,2013-04-27 06:51:00,
2013-04-27 00:56:00,52.5,22.8,29.75,NW,307,1.0,16.0,31,0.00,,SCT210,0.00,VWS V14.01,2013-04-27 06:56:00,
2013-04-27 01:01:00,52.3,22.6,29.75,NW,324,0.0,0.0,31,0.00,,SCT210,0.00,VWS V14.01,2013-04-27 07:01:00,
2013-04-27 01:06:00,52.3,22.6,29.75,NW,325,0.0,3.0,31,0.00,,SCT210,0.00,VWS V14.01,2013-04-27 07:06:00,
2013-04-27 01:11:00,52.3,23.3,29.75,NW,323,0.0,3.0,32,0.00,,SCT210,0.00,VWS V14.01,2013-04-27 07:11:00,
2013-04-27 01:16:00,52.2,23.2,29.74,WNW,301,0.0,3.0,32,0.00,,SCT210,0.00,VWS V14.01,2013-04-27 07:16:00,
2013-04-27 01:21:00,52.2,23.2,29.74,WNW,298,0.0,3.0,32,0.00,,SCT210,0.00,VWS V14.01,2013-04-27 07:21:00,
2013-04-27 01:26:00,52.2,22.5,29.74,ESE,113,0.0,3.0,31,0.00,,SCT210,0.00,VWS V14.01,2013-04-27 07:26:00,
2013-04-27 01:31:00,52.3,22.6,29.74,NW,320,0.0,0.0,31,0.00,,SCT210,0.00,VWS V14.01,2013-04-27 07:31:00,
2013-04-27 01:36:00,52.2,22.5,29.74,North,352,0.0,1.0,31,0.00,,BKN220,0.00,VWS V14.01,2013-04-27 07:36:00,
2013-04-27 01:41:00,52.3,22.6,29.74,NNW,339,0.0,2.0,31,0.00,,BKN220,0.00,VWS V14.01,2013-04-27 07:41:00,
2013-04-27 01:46:00,52.2,22.5,29.73,NW,321,0.0,2.0,31,0.00,,BKN220,0.00,VWS V14.01,2013-04-27 07:46:00,
2013-04-27 01:51:00,52.2,22.5,29.73,North,354,0.0,4.0,31,0.00,,BKN220,0.00,VWS V14.01,2013-04-27 07:51:00,
2013-04-27 01:56:00,52.2,22.5,29.73,SE,129,0.0,4.0,31,0.00,,BKN220,0.00,VWS V14.01,2013-04-27 07:56:00,
2013-04-27 02:01:00,52.0,22.3,29.74,NW,311,0.0,0.0,31,0.00,,BKN220,0.00,VWS V14.01,2013-04-27 08:01:00,
2013-04-27 02:06:00,52.0,22.3,29.74,NNW,327,0.0,1.0,31,0.00,,BKN220,0.00,VWS V14.01,2013-04-27 08:06:00,
2013-04-27 02:11:00,52.0,22.3,29.74,NW,319,0.0,4.0,31,0.00,,BKN220,0.00,VWS V14.01,2013-04-27 08:11:00,
2013-04-27 02:16:00,52.0,22.3,29.74,SW,229,0.0,4.0,31,0.00,,BKN220,0.00,VWS V14.01,2013-04-27 08:16:00,
2013-04-27 02:21:00,52.0,22.3,29.74,North,8,0.0,4.0,31,0.00,,BKN220,0.00,VWS V14.01,2013-04-27 08:21:00,
2013-04-27 02:26:00,52.0,22.3,29.74,North,356,0.0,5.0,31,0.00,,BKN220,0.00,VWS V14.01,2013-04-27 08:26:00,
2013-04-27 02:31:00,51.9,23.0,29.74,NW,316,0.0,0.0,32,0.00,,BKN220,0.00,VWS V14.01,2013-04-27 08:31:00,
2013-04-27 02:36:00,51.7,22.1,29.74,NW,316,0.0,1.0,31,0.00,,OVC220,0.00,VWS V14.01,2013-04-27 08:36:00,
2013-04-27 02:41:00,51.7,22.1,29.74,NNW,348,0.0,1.0,31,0.00,,OVC220,0.00,VWS V14.01,2013-04-27 08:41:00,
2013-04-27 02:46:00,51.6,22.7,29.73,NNW,331,0.0,1.0,32,0.00,,OVC220,0.00,VWS V14.01,2013-04-27 08:46:00,
2013-04-27 02:51:00,51.3,23.2,29.73,NNW,331,0.0,1.0,33,0.00,,OVC220,0.00,VWS V14.01,2013-04-27 08:51:00,
2013-04-27 02:56:00,50.8,23.5,29.73,NNW,331,0.0,1.0,34,0.00,,OVC220,0.00,VWS V14.01,2013-04-27 08:56:00,
2013-04-27 03:01:00,50.7,22.7,29.74,North,3,0.0,1.0,33,0.00,,OVC220,0.00,VWS V14.01,2013-04-27 09:01:00,
2013-04-27 03:06:00,51.0,22.9,29.74,SE,125,0.0,11.0,33,0.00,,OVC220,0.00,VWS V14.01,2013-04-27 09:06:00,
2013-04-27 03:11:00,51.0,23.6,29.74,SE,140,0.0,11.0,34,0.00,,OVC220,0.00,VWS V14.01,2013-04-27 09:11:00,
2013-04-27 03:16:00,50.8,23.5,29.72,SE,144,0.0,11.0,34,0.00,,OVC220,0.00,VWS V14.01,2013-04-27 09:16:00,
2013-04-27 03:21:00,50.7,23.4,29.72,ESE,110,0.0,11.0,34,0.00,,OVC220,0.00,VWS V14.01,2013-04-27 09:21:00,
2013-04-27 03:26:00,50.5,23.9,29.72,NW,321,0.0,11.0,35,0.00,,OVC220,0.00,VWS V14.01,2013-04-27 09:26:00,
2013-04-27 03:31:00,50.5,23.9,29.72,NNW,338,0.0,11.0,35,0.00,,OVC220,0.00,VWS V14.01,2013-04-27 09:31:00,
2013-04-27 03:36:00,50.5,23.9,29.72,NNW,339,0.0,2.0,35,0.00,,BKN230,0.00,VWS V14.01,2013-04-27 09:36:00,
2013-04-27 03:41:00,50.5,23.9,29.72,NW,326,0.0,2.0,35,0.00,,BKN230,0.00,VWS V14.01,2013-04-27 09:41:00,
2013-04-27 03:46:00,50.2,24.3,29.73,NW,316,0.0,2.0,36,0.00,,BKN230,0.00,VWS V14.01,2013-04-27 09:46:00,
2013-04-27 03:51:00,49.9,24.0,29.73,SE,141,0.0,2.0,36,0.00,,BKN230,0.00,VWS V14.01,2013-04-27 09:51:00,
2013-04-27 03:56:00,49.6,25.0,29.73,SE,133,0.0,2.0,38,0.00,,BKN230,0.00,VWS V14.01,2013-04-27 09:56:00,
2013-04-27 04:01:00,49.4,24.2,29.73,NNW,337,0.0,13.0,37,0.00,,BKN230,0.00,VWS V14.01,2013-04-27 10:01:00,
2013-04-27 04:06:00,49.4,24.2,29.73,NW,314,0.0,1.0,37,0.00,,BKN230,0.00,VWS V14.01,2013-04-27 10:06:00,
2013-04-27 04:11:00,49.6,23.8,29.73,SE,129,0.0,1.0,36,0.00,,BKN230,0.00,VWS V14.01,2013-04-27 10:11:00,
2013-04-27 04:16:00,49.6,23.8,29.73,NW,319,0.0,1.0,36,0.00,,BKN230,0.00,VWS V14.01,2013-04-27 10:16:00,
2013-04-27 04:21:00,49.5,24.3,29.73,NW,304,0.0,3.0,37,0.00,,BKN230,0.00,VWS V14.01,2013-04-27 10:21:00,
2013-04-27 04:26:00,49.6,23.1,29.73,West,261,0.0,3.0,35,0.00,,BKN230,0.00,VWS V14.01,2013-04-27 10:26:00,
2013-04-27 04:31:00,49.9,22.7,29.72,NNW,348,0.0,3.0,34,0.00,,BKN230,0.00,VWS V14.01,2013-04-27 10:31:00,
2013-04-27 04:36:00,50.1,22.1,29.72,SE,125,0.0,11.0,33,0.00,,BKN230,0.00,VWS V14.01,2013-04-27 10:36:00,
2013-04-27 04:41:00,50.2,22.9,29.72,NNW,338,0.0,11.0,34,0.00,,BKN230,0.00,VWS V14.01,2013-04-27 10:41:00,
2013-04-27 04:46:00,50.1,22.8,29.71,North,349,0.0,11.0,34,0.00,,BKN230,0.00,VWS V14.01,2013-04-27 10:46:00,
2013-04-27 04:51:00,49.9,22.7,29.71,NW,319,0.0,11.0,34,0.00,,BKN230,0.00,VWS V14.01,2013-04-27 10:51:00,
2013-04-27 04:56:00,49.6,23.1,29.71,NNW,333,0.0,11.0,35,0.00,,BKN230,0.00,VWS V14.01,2013-04-27 10:56:00,
2013-04-27 05:01:00,49.6,21.7,29.70,NNW,328,0.0,0.0,33,0.00,,BKN230,0.00,VWS V14.01,2013-04-27 11:01:00,
2013-04-27 05:06:00,49.9,22.0,29.70,SE,131,0.0,1.0,33,0.00,,BKN230,0.00,VWS V14.01,2013-04-27 11:06:00,
2013-04-27 05:11:00,49.9,22.0,29.70,NW,318,0.0,1.0,33,0.00,,BKN230,0.00,VWS V14.01,2013-04-27 11:11:00,
2013-04-27 05:16:00,49.8,21.9,29.72,NE,48,0.0,1.0,33,0.00,,BKN230,0.00,VWS V14.01,2013-04-27 11:16:00,
2013-04-27 05:21:00,49.6,21.7,29.72,NW,323,0.0,4.0,33,0.00,,BKN230,0.00,VWS V14.01,2013-04-27 11:21:00,
2013-04-27 05:26:00,49.6,21.7,29.72,NW,312,0.0,4.0,33,0.00,,BKN230,0.00,VWS V14.01,2013-04-27 11:26:00,
2013-04-27 05:31:00,49.4,22.2,29.73,NNW,330,0.0,4.0,34,0.00,,BKN230,0.00,VWS V14.01,2013-04-27 11:31:00,
2013-04-27 05:36:00,49.4,21.5,29.73,NNW,346,0.0,0.0,33,0.00,,BKN240,0.00,VWS V14.01,2013-04-27 11:36:00,
2013-04-27 05:41:00,49.4,21.5,29.73,NNW,328,0.0,0.0,33,0.00,,BKN240,0.00,VWS V14.01,2013-04-27 11:41:00,
2013-04-27 05:46:00,49.4,21.5,29.73,NW,326,0.0,0.0,33,0.00,,BKN240,0.00,VWS V14.01,2013-04-27 11:46:00,
2013-04-27 05:51:00,49.4,21.5,29.73,NW,325,0.0,2.0,33,0.00,,BKN240,0.00,VWS V14.01,2013-04-27 11:51:00,
2013-04-27 05:56:00,49.4,21.5,29.73,NW,319,0.0,2.0,33,0.00,,BKN240,0.00,VWS V14.01,2013-04-27 11:56:00,
2013-04-27 06:01:00,49.2,21.3,29.73,NNW,336,1.0,2.0,33,0.00,,BKN240,0.00,VWS V14.01,2013-04-27 12:01:00,
2013-04-27 06:06:00,49.5,21.6,29.73,NNW,340,0.0,13.0,33,0.00,,BKN240,0.00,VWS V14.01,2013-04-27 12:06:00,
2013-04-27 06:11:00,49.6,21.7,29.73,WNW,285,0.0,13.0,33,0.00,,BKN240,0.00,VWS V14.01,2013-04-27 12:11:00,
2013-04-27 06:16:00,49.6,22.4,29.72,NW,316,0.0,13.0,34,0.00,,BKN240,0.00,VWS V14.01,2013-04-27 12:16:00,
2013-04-27 06:21:00,49.5,21.6,29.72,North,358,0.0,13.0,33,0.00,,BKN240,0.00,VWS V14.01,2013-04-27 12:21:00,
2013-04-27 06:26:00,49.5,21.6,29.72,NNW,333,0.0,13.0,33,0.00,,BKN240,0.00,VWS V14.01,2013-04-27 12:26:00,
2013-04-27 06:31:00,49.2,22.0,29.72,ESE,123,0.0,13.0,34,0.00,,BKN240,0.00,VWS V14.01,2013-04-27 12:31:00,
2013-04-27 06:36:00,49.4,22.9,29.72,SE,131,0.0,11.0,35,0.00,,SCT240,0.00,VWS V14.01,2013-04-27 12:36:00,
2013-04-27 06:41:00,49.4,22.2,29.72,SSE,151,0.0,11.0,34,0.00,,SCT240,0.00,VWS V14.01,2013-04-27 12:41:00,
2013-04-27 06:46:00,49.4,22.2,29.72,NW,310,0.0,11.0,34,0.00,,SCT240,0.00,VWS V14.01,2013-04-27 12:46:00,
2013-04-27 06:51:00,49.2,22.7,29.72,SE,126,0.0,11.0,35,0.00,,SCT240,0.00,VWS V14.01,2013-04-27 12:51:00,
2013-04-27 06:56:00,49.1,22.0,29.72,NW,321,0.0,11.0,34,0.00,,SCT240,0.00,VWS V14.01,2013-04-27 12:56:00,
2013-04-27 07:01:00,49.1,22.0,29.72,SSW,210,0.0,11.0,34,0.00,,SCT240,0.00,VWS V14.01,2013-04-27 13:01:00,
2013-04-27 07:06:00,49.1,22.6,29.72,NW,318,0.0,0.0,35,0.00,,SCT240,0.00,VWS V14.01,2013-04-27 13:06:00,
2013-04-27 07:11:00,49.1,22.6,29.72,NNW,340,0.0,16.0,35,0.00,,SCT240,0.00,VWS V14.01,2013-04-27 13:11:00,
2013-04-27 07:16:00,49.2,22.0,29.74,NNW,337,0.0,16.0,34,0.00,,SCT240,0.00,VWS V14.01,2013-04-27 13:16:00,
2013-04-27 07:21:00,49.4,22.2,29.74,NNW,346,0.0,16.0,34,0.00,,SCT240,0.00,VWS V14.01,2013-04-27 13:21:00,
2013-04-27 07:26:00,49.2,22.7,29.74,NW,316,0.0,16.0,35,0.00,,SCT240,0.00,VWS V14.01,2013-04-27 13:26:00,
2013-04-27 07:31:00,49.1,22.6,29.75,NNW,328,0.0,16.0,35,0.00,,SCT240,0.00,VWS V14.01,2013-04-27 13:31:00,
2013-04-27 07:36:00,49.1,22.6,29.75,NW,311,0.0,0.0,35,0.00,,SCT240,0.00,VWS V14.01,2013-04-27 13:36:00,
2013-04-27 07:41:00,48.9,22.5,29.75,NW,314,0.0,0.0,35,0.00,,SCT240,0.00,VWS V14.01,2013-04-27 13:41:00,
2013-04-27 07:48:00,49.1,22.6,29.75,NNW,330,0.0,0.0,35,0.00,,SCT240,0.00,VWS V14.01,2013-04-27 13:48:00,
2013-04-27 07:53:00,49.2,22.7,29.75,NNW,330,0.0,0.0,35,0.00,,SCT240,0.00,VWS V14.01,2013-04-27 13:53:00,
2013-04-27 07:58:00,49.2,22.7,29.75,NNW,330,0.0,0.0,35,0.00,,SCT240,0.00,VWS V14.01,2013-04-27 13:58:00,
2013-04-27 08:03:00,49.2,23.4,29.75,NW,319,0.0,0.0,36,0.00,,SCT240,0.00,VWS V14.01,2013-04-27 14:03:00,
2013-04-27 08:08:00,49.2,22.7,29.75,NW,321,0.0,0.0,35,0.00,,SCT240,0.00,VWS V14.01,2013-04-27 14:08:00,
2013-04-27 08:13:00,49.5,23.0,29.75,SE,127,0.0,3.0,35,0.00,,SCT240,0.00,VWS V14.01,2013-04-27 14:13:00,
2013-04-27 08:18:00,49.6,23.1,29.74,NNW,342,0.0,3.0,35,0.00,,SCT240,0.00,VWS V14.01,2013-04-27 14:18:00,
2013-04-27 08:23:00,49.9,23.4,29.74,East,100,0.0,3.0,35,0.00,,SCT240,0.00,VWS V14.01,2013-04-27 14:23:00,
2013-04-27 08:28:00,50.1,23.5,29.74,WNW,297,4.0,4.0,35,0.00,,SCT240,0.00,VWS V14.01,2013-04-27 14:28:00,
2013-04-27 08:33:00,50.2,22.9,29.75,ESE,123,0.0,1.0,34,0.00,,BKN190,0.00,VWS V14.01,2013-04-27 14:33:00,
2013-04-27 08:38:00,50.4,23.8,29.75,NNW,331,0.0,1.0,35,0.00,,BKN190,0.00,VWS V14.01,2013-04-27 14:38:00,
2013-04-27 08:43:00,50.4,22.4,29.75,NNW,345,0.0,1.0,33,0.00,,BKN190,0.00,VWS V14.01,2013-04-27 14:43:00,
2013-04-27 08:48:00,50.5,23.2,29.74,North,357,0.0,1.0,34,0.00,,BKN190,0.00,VWS V14.01,2013-04-27 14:48:00,
2013-04-27 08:53:00,50.7,23.4,29.74,NNW,336,0.0,1.0,34,0.00,,BKN190,0.00,VWS V14.01,2013-04-27 14:53:00,
2013-04-27 08:58:00,50.8,23.5,29.74,NNW,330,0.0,1.0,34,0.00,,BKN190,0.00,VWS V14.01,2013-04-27 14:58:00,
2013-04-27 09:03:00,51.0,22.9,29.74,NNW,330,0.0,0.0,33,0.00,,BKN190,0.00,VWS V14.01,2013-04-27 15:03:00,
2013-04-27 09:08:00,51.1,22.3,29.74,NW,310,0.0,0.0,32,0.00,,BKN190,0.00,VWS V14.01,2013-04-27 15:08:00,
2013-04-27 09:13:00,51.1,23.7,29.74,SE,146,0.0,2.0,34,0.00,,BKN190,0.00,VWS V14.01,2013-04-27 15:13:00,
2013-04-27 09:18:00,51.0,22.9,29.75,SE,130,0.0,2.0,33,0.00,,BKN190,0.00,VWS V14.01,2013-04-27 15:18:00,
2013-04-27 09:23:00,51.0,23.6,29.75,SE,139,0.0,2.0,34,0.00,,BKN190,0.00,VWS V14.01,2013-04-27 15:23:00,
2013-04-27 09:28:00,51.1,23.7,29.75,SE,141,0.0,2.0,34,0.00,,BKN190,0.00,VWS V14.01,2013-04-27 15:28:00,
2013-04-27 09:33:00,51.4,24.0,29.74,West,273,0.0,0.0,34,0.00,,BKN190,0.00,VWS V14.01,2013-04-27 15:33:00,
2013-04-27 09:38:00,51.6,23.5,29.74,NW,313,0.0,0.0,33,0.00,,BKN190,0.00,VWS V14.01,2013-04-27 15:38:00,
2013-04-27 09:43:00,51.6,23.5,29.74,NW,313,0.0,0.0,33,0.00,,BKN190,0.00,VWS V14.01,2013-04-27 15:43:00,
2013-04-27 09:48:00,51.9,24.4,29.74,SE,124,2.0,2.0,34,0.00,,BKN190,0.00,VWS V14.01,2013-04-27 15:48:00,
2013-04-27 09:53:00,51.7,25.0,29.74,SE,131,0.0,2.0,35,0.00,,BKN190,0.00,VWS V14.01,2013-04-27 15:53:00,
2013-04-27 09:58:00,51.4,24.7,29.74,NNE,23,0.0,3.0,35,0.00,,BKN190,0.00,VWS V14.01,2013-04-27 15:58:00,
2013-04-27 10:03:00,51.1,26.4,29.75,SE,136,0.0,0.0,38,0.00,,BKN190,0.00,VWS V14.01,2013-04-27 16:03:00,
2013-04-27 10:08:00,50.8,26.1,29.75,NW,316,1.0,4.0,38,0.00,,BKN190,0.00,VWS V14.01,2013-04-27 16:08:00,
2013-04-27 10:13:00,50.2,27.4,29.75,North,357,0.0,4.0,41,0.00,,BKN190,0.00,VWS V14.01,2013-04-27 16:13:00,
2013-04-27 10:18:00,49.9,27.1,29.74,NW,316,0.0,4.0,41,0.00,,BKN190,0.00,VWS V14.01,2013-04-27 16:18:00,
2013-04-27 10:23:00,49.4,29.5,29.74,NW,321,0.0,4.0,46,0.00,,BKN190,0.00,VWS V14.01,2013-04-27 16:23:00,
2013-04-27 10:28:00,49.4,29.5,29.74,ESE,117,0.0,4.0,46,0.00,,BKN190,0.00,VWS V14.01,2013-04-27 16:28:00,
2013-04-27 10:33:00,49.5,28.5,29.75,SE,127,0.0,0.0,44,0.00,,BKN190,0.00,VWS V14.01,2013-04-27 16:33:00,
2013-04-27 10:38:00,49.6,29.7,29.75,NW,326,0.0,0.0,46,0.00,,BKN190,0.00,VWS V14.01,2013-04-27 16:38:00,
2013-04-27 10:43:00,49.4,30.0,29.75,North,0,0.0,1.0,47,0.00,,BKN190,0.00,VWS V14.01,2013-04-27 16:43:00,
2013-04-27 10:48:00,48.9,31.6,29.74,ESE,110,0.0,1.0,51,0.00,,BKN190,0.00,VWS V14.01,2013-04-27 16:48:00,
2013-04-27 10:53:00,48.3,32.0,29.74,NW,311,0.0,1.0,53,0.00,,BKN190,0.00,VWS V14.01,2013-04-27 16:53:00,
2013-04-27 10:58:00,47.9,31.1,29.74,SE,144,0.0,10.0,52,0.00,,BKN190,0.00,VWS V14.01,2013-04-27 16:58:00,
2013-04-27 11:03:00,48.0,32.6,29.73,NNW,330,0.0,0.0,55,0.00,,BKN190,0.00,VWS V14.01,2013-04-27 17:03:00,
2013-04-27 11:08:00,47.9,32.1,29.73,ENE,76,0.0,0.0,54,0.00,,BKN190,0.00,VWS V14.01,2013-04-27 17:08:00,
2013-04-27 11:13:00,48.0,30.3,29.73,NW,321,0.0,0.0,50,0.00,,BKN190,0.00,VWS V14.01,2013-04-27 17:13:00,
2013-04-27 11:18:00,48.2,33.3,29.71,NW,321,0.0,0.0,56,0.00,,BKN190,0.00,VWS V14.01,2013-04-27 17:18:00,
2013-04-27 11:23:00,48.3,31.5,29.71,NW,317,0.0,0.0,52,0.00,,BKN190,0.00,VWS V14.01,2013-04-27 17:23:00,
2013-04-27 11:28:00,48.3,30.5,29.71,NNW,342,0.0,0.0,50,0.00,,BKN190,0.00,VWS V14.01,2013-04-27 17:28:00,
2013-04-27 11:33:00,48.5,31.2,29.71,ENE,68,0.0,0.0,51,0.00,,BKN190,0.00,VWS V14.01,2013-04-27 17:33:00,
2013-04-27 11:38:00,48.5,31.2,29.71,North,350,0.0,0.0,51,0.00,,BKN190,0.00,VWS V14.01,2013-04-27 17:38:00,
2013-04-27 11:43:00,48.3,32.0,29.71,NW,323,0.0,0.0,53,0.00,,BKN190,0.00,VWS V14.01,2013-04-27 17:43:00,
2013-04-27 11:48:00,47.7,32.3,29.71,NNW,332,0.0,0.0,55,0.00,,BKN190,0.00,VWS V14.01,2013-04-27 17:48:00,
2013-04-27 11:53:00,47.0,31.7,29.71,NNW,336,0.0,0.0,55,0.00,,BKN190,0.00,VWS V14.01,2013-04-27 17:53:00,
2013-04-27 11:58:00,46.7,33.2,29.71,NNW,327,0.0,0.0,59,0.00,,BKN190,0.00,VWS V14.01,2013-04-27 17:58:00,
2013-04-27 12:03:00,46.2,32.7,29.70,NW,316,0.0,0.0,59,0.00,,BKN190,0.00,VWS V14.01,2013-04-27 18:03:00,
2013-04-27 12:08:00,46.0,32.5,29.70,NW,316,0.0,0.0,59,0.00,,BKN190,0.00,VWS V14.01,2013-04-27 18:08:00,
2013-04-27 12:13:00,45.7,32.6,29.70,NW,316,0.0,0.0,60,0.00,,BKN190,0.00,VWS V14.01,2013-04-27 18:13:00,
2013-04-27 12:18:00,45.7,33.4,29.72,NW,316,0.0,0.0,62,0.00,,BKN190,0.00,VWS V14.01,2013-04-27 18:18:00,
2013-04-27 12:23:00,45.7,34.2,29.72,NW,316,0.0,0.0,64,0.00,,BKN190,0.00,VWS V14.01,2013-04-27 18:23:00,
2013-04-27 12:28:00,45.4,34.3,29.72,NW,316,0.0,0.0,65,0.00,,BKN190,0.00,VWS V14.01,2013-04-27 18:28:00,
2013-04-27 12:33:00,45.1,33.7,29.71,NNW,328,0.0,0.0,64,0.00,,BKN190,0.00,VWS V14.01,2013-04-27 18:33:00,
2013-04-27 12:38:00,44.5,35.0,29.71,NNW,332,0.0,0.0,69,0.00,,BKN190,0.00,VWS V14.01,2013-04-27 18:38:00,
2013-04-27 12:43:00,44.2,35.4,29.71,NNW,332,0.0,0.0,71,0.00,,BKN190,0.00,VWS V14.01,2013-04-27 18:43:00,
2013-04-27 12:48:00,43.9,34.8,29.71,NNW,332,0.0,0.0,70,0.00,,BKN190,0.00,VWS V14.01,2013-04-27 18:48:00,
2013-04-27 12:53:00,43.8,35.0,29.71,NNW,332,0.0,0.0,71,0.00,,BKN190,0.00,VWS V14.01,2013-04-27 18:53:00,
2013-04-27 12:58:00,43.8,36.1,29.71,NNW,332,0.0,0.0,74,0.00,,BKN190,0.00,VWS V14.01,2013-04-27 18:58:00,
2013-04-27 13:03:00,43.6,35.5,29.70,NNW,332,0.0,0.0,73,0.00,,BKN190,0.00,VWS V14.01,2013-04-27 19:03:00,
2013-04-27 13:08:00,43.6,34.8,29.70,NNW,332,0.0,0.0,71,0.00,,BKN190,0.00,VWS V14.01,2013-04-27 19:08:00,
2013-04-27 13:13:00,43.8,35.7,29.70,NNW,332,0.0,0.0,73,0.00,,BKN190,0.00,VWS V14.01,2013-04-27 19:13:00,
2013-04-27 13:18:00,43.6,35.9,29.69,NNW,332,0.0,0.0,74,0.00,,BKN190,0.00,VWS V14.01,2013-04-27 19:18:00,
2013-04-27 13:23:00,43.6,36.2,29.69,NNW,332,0.0,0.0,75,0.00,,BKN190,0.00,VWS V14.01,2013-04-27 19:23:00,
2013-04-27 13:28:00,43.6,35.9,29.69,NNW,332,0.0,0.0,74,0.00,,BKN190,0.00,VWS V14.01,2013-04-27 19:28:00,
2013-04-27 13:33:00,43.6,36.2,29.67,NNW,327,0.0,0.0,75,0.00,,BKN190,0.00,VWS V14.01,2013-04-27 19:33:00,
2013-04-27 13:38:00,43.5,35.8,29.67,NW,324,0.0,0.0,74,0.00,,BKN190,0.00,VWS V14.01,2013-04-27 19:38:00,
2013-04-27 13:43:00,43.5,35.8,29.67,NW,317,0.0,0.0,74,0.00,,BKN190,0.00,VWS V14.01,2013-04-27 19:43:00,
2013-04-27 13:48:00,43.3,35.6,29.69,NW,317,0.0,0.0,74,0.00,,BKN190,0.00,VWS V14.01,2013-04-27 19:48:00,
2013-04-27 13:53:00,43.3,35.6,29.69,NNW,331,0.0,0.0,74,0.00,,BKN190,0.00,VWS V14.01,2013-04-27 19:53:00,
2013-04-27 13:58:00,43.3,35.6,29.69,NNW,332,0.0,0.0,74,0.00,,BKN190,0.00,VWS V14.01,2013-04-27 19:58:00,
2013-04-27 14:03:00,43.3,35.6,29.69,WNW,300,0.0,0.0,74,0.00,,BKN190,0.00,VWS V14.01,2013-04-27 20:03:00,
2013-04-27 14:08:00,43.2,35.5,29.69,NW,319,0.0,0.0,74,0.00,,BKN190,0.00,VWS V14.01,2013-04-27 20:08:00,
2013-04-27 14:13:00,43.2,36.2,29.69,North,349,0.0,0.0,76,0.00,,BKN190,0.00,VWS V14.01,2013-04-27 20:13:00,
2013-04-27 14:18:00,43.1,35.7,29.68,NNW,333,0.0,0.0,75,0.00,,BKN190,0.00,VWS V14.01,2013-04-27 20:18:00,
2013-04-27 14:23:00,42.9,35.5,29.68,NW,315,0.0,0.0,75,0.00,,BKN190,0.00,VWS V14.01,2013-04-27 20:23:00,
2013-04-27 14:28:00,42.9,35.9,29.68,NW,314,0.0,0.0,76,0.00,,BKN190,0.00,VWS V14.01,2013-04-27 20:28:00,
2013-04-27 14:33:00,42.8,35.8,29.68,NW,323,0.0,0.0,76,0.00,,BKN190,0.00,VWS V14.01,2013-04-27 20:33:00,
2013-04-27 14:38:00,42.6,36.2,29.68,NW,323,0.0,0.0,78,0.00,,BKN190,0.00,VWS V14.01,2013-04-27 20:38:00,
2013-04-27 14:43:00,42.8,36.8,29.68,NW,323,0.0,0.0,79,0.00,,BKN190,0.00,VWS V14.01,2013-04-27 20:43:00,
2013-04-27 14:48:00,42.6,36.2,29.67,NW,322,0.0,0.0,78,0.00,,BKN190,0.00,VWS V14.01,2013-04-27 20:48:00,
2013-04-27 14:53:00,42.6,37.2,29.67,NE,56,0.0,0.0,81,0.00,,BKN190,0.00,VWS V14.01,2013-04-27 20:53:00,
2013-04-27 14:58:00,42.6,36.5,29.67,North,353,0.0,0.0,79,0.00,,BKN190,0.00,VWS V14.01,2013-04-27 20:58:00,
2013-04-27 15:03:00,42.5,36.1,29.67,NNW,344,0.0,0.0,78,0.00,,BKN190,0.00,VWS V14.01,2013-04-27 21:03:00,
2013-04-27 15:08:00,42.5,36.1,29.67,NNW,344,0.0,0.0,78,0.00,,SCT110,0.00,VWS V14.01,2013-04-27 21:08:00,
2013-04-27 15:13:00,42.6,36.9,29.67,NNE,20,0.0,0.0,80,0.00,,SCT110,0.00,VWS V14.01,2013-04-27 21:13:00,
2013-04-27 15:18:00,42.9,37.2,29.67,ENE,65,0.0,0.0,80,0.00,,SCT110,0.00,VWS V14.01,2013-04-27 21:18:00,
2013-04-27 15:23:00,43.1,36.7,29.67,NW,326,0.0,0.0,78,0.00,,SCT110,0.00,VWS V14.01,2013-04-27 21:23:00,
2013-04-27 15:28:00,43.2,36.5,29.67,NNW,327,0.0,0.0,77,0.00,,SCT110,0.00,VWS V14.01,2013-04-27 21:28:00,
2013-04-27 15:33:00,43.3,36.9,29.67,NW,326,0.0,0.0,78,0.00,,SCT110,0.00,VWS V14.01,2013-04-27 21:33:00,
2013-04-27 15:38:00,43.6,36.9,29.67,NW,317,0.0,0.0,77,0.00,,FEW110,0.00,VWS V14.01,2013-04-27 21:38:00,
2013-04-27 15:43:00,43.8,36.4,29.67,NW,318,0.0,0.0,75,0.00,,FEW110,0.00,VWS V14.01,2013-04-27 21:43:00,
2013-04-27 15:48:00,43.9,37.5,29.66,NNW,329,0.0,0.0,78,0.00,,FEW110,0.00,VWS V14.01,2013-04-27 21:48:00,
2013-04-27 15:53:00,44.1,36.7,29.66,NNW,329,0.0,0.0,75,0.00,,FEW110,0.00,VWS V14.01,2013-04-27 21:53:00,
2013-04-27 15:58:00,44.1,37.4,29.66,NW,321,0.0,0.0,77,0.00,,FEW110,0.00,VWS V14.01,2013-04-27 21:58:00,
2013-04-27 16:03:00,44.1,37.4,29.66,NW,320,0.0,0.0,77,0.00,,FEW110,0.00,VWS V14.01,2013-04-27 22:03:00,
2013-04-27 16:08:00,43.9,37.2,29.66,NW,320,0.0,0.0,77,0.00,,FEW110,0.00,VWS V14.01,2013-04-27 22:08:00,
2013-04-27 16:13:00,43.9,36.5,29.66,NNW,342,0.0,0.0,75,0.00,,FEW110,0.00,VWS V14.01,2013-04-27 22:13:00,
2013-04-27 16:18:00,43.9,36.5,29.65,NNW,331,0.0,0.0,75,0.00,,FEW110,0.00,VWS V14.01,2013-04-27 22:18:00,
2013-04-27 16:23:00,43.9,36.8,29.65,NW,317,0.0,0.0,76,0.00,,FEW110,0.00,VWS V14.01,2013-04-27 22:23:00,
2013-04-27 16:28:00,43.9,36.2,29.65,NW,317,0.0,0.0,74,0.00,,FEW110,0.00,VWS V14.01,2013-04-27 22:28:00,
2013-04-27 16:33:00,44.1,37.0,29.65,NW,315,0.0,0.0,76,0.00,,FEW110,0.00,VWS V14.01,2013-04-27 22:33:00,
2013-04-27 16:38:00,44.2,37.1,29.65,NW,320,0.0,0.0,76,0.00,,FEW100,0.00,VWS V14.01,2013-04-27 22:38:00,
2013-04-27 16:43:00,44.3,36.5,29.65,NW,321,0.0,0.0,74,0.00,,FEW100,0.00,VWS V14.01,2013-04-27 22:43:00,
2013-04-27 16:48:00,44.5,34.2,29.65,NW,319,0.0,0.0,67,0.00,,FEW100,0.00,VWS V14.01,2013-04-27 22:48:00,
2013-04-27 16:53:00,44.8,35.6,29.65,NNW,327,0.0,0.0,70,0.00,,FEW100,0.00,VWS V14.01,2013-04-27 22:53:00,
2013-04-27 16:58:00,44.9,34.6,29.65,NNW,338,0.0,0.0,67,0.00,,FEW100,0.00,VWS V14.01,2013-04-27 22:58:00,
2013-04-27 17:03:00,45.1,35.2,29.65,NNW,338,0.0,0.0,68,0.00,,FEW100,0.00,VWS V14.01,2013-04-27 23:03:00,
2013-04-27 17:08:00,45.2,35.3,29.65,NW,326,0.0,0.0,68,0.00,,FEW100,0.00,VWS V14.01,2013-04-27 23:08:00,
2013-04-27 17:13:00,45.2,35.7,29.65,NW,314,0.0,0.0,69,0.00,,FEW100,0.00,VWS V14.01,2013-04-27 23:13:00,
2013-04-27 17:18:00,45.1,34.8,29.65,North,0,0.0,0.0,67,0.00,,FEW100,0.00,VWS V14.01,2013-04-27 23:18:00,
2013-04-27 17:23:00,45.2,34.9,29.65,NW,315,0.0,0.0,67,0.00,,FEW100,0.00,VWS V14.01,2013-04-27 23:23:00,
2013-04-27 17:27:00,45.2,35.3,29.65,NW,315,0.0,0.0,68,0.00,,FEW100,0.00,VWS V14.01,2013-04-27 23:27:00,
2013-04-27 17:32:00,45.4,35.5,29.65,NW,315,0.0,0.0,68,0.00,,FEW100,0.00,VWS V14.01,2013-04-27 23:32:00,
2013-04-27 17:37:00,45.5,35.2,29.65,North,2,0.0,0.0,67,0.00,,FEW075,0.00,VWS V14.01,2013-04-27 23:37:00,
2013-04-27 17:42:00,45.7,35.0,29.65,North,0,0.0,0.0,66,0.00,,FEW075,0.00,VWS V14.01,2013-04-27 23:42:00,
2013-04-27 17:47:00,45.7,35.4,29.66,NW,321,0.0,0.0,67,0.00,,FEW075,0.00,VWS V14.01,2013-04-27 23:47:00,
2013-04-27 17:52:00,45.7,35.0,29.66,NW,319,0.0,0.0,66,0.00,,FEW075,0.00,VWS V14.01,2013-04-27 23:52:00,
2013-04-27 17:57:00,45.7,34.6,29.66,NW,319,0.0,0.0,65,0.00,,FEW075,0.00,VWS V14.01,2013-04-27 23:57:00,
2013-04-27 18:02:00,45.7,35.0,29.67,NNW,328,0.0,0.0,66,0.00,,FEW075,0.00,VWS V14.01,2013-04-28 00:02:00,
2013-04-27 18:07:00,45.7,33.8,29.67,NNW,328,0.0,0.0,63,0.00,,FEW075,0.00,VWS V14.01,2013-04-28 00:07:00,
2013-04-27 18:12:00,45.8,34.7,29.67,NNW,328,0.0,0.0,65,0.00,,FEW075,0.00,VWS V14.01,2013-04-28 00:12:00,
2013-04-27 18:17:00,45.8,34.7,29.67,NNW,328,0.0,0.0,65,0.00,,FEW075,0.00,VWS V14.01,2013-04-28 00:17:00,
2013-04-27 18:22:00,46.0,34.1,29.67,NNW,328,0.0,0.0,63,0.00,,FEW075,0.00,VWS V14.01,2013-04-28 00:22:00,
2013-04-27 18:27:00,46.1,35.0,29.67,NNW,328,0.0,0.0,65,0.00,,FEW075,0.00,VWS V14.01,2013-04-28 00:27:00,
2013-04-27 18:32:00,46.2,34.7,29.67,NNW,328,0.0,0.0,64,0.00,,FEW075,0.00,VWS V14.01,2013-04-28 00:32:00,
2013-04-27 18:37:00,46.4,35.7,29.67,NNW,328,0.0,0.0,66,0.00,,FEW080,0.00,VWS V14.01,2013-04-28 00:37:00,
2013-04-27 18:42:00,46.4,32.4,29.67,ESE,120,0.0,0.0,58,0.00,,FEW080,0.00,VWS V14.01,2013-04-28 00:42:00,
2013-04-27 18:47:00,46.5,30.8,29.67,NW,304,0.0,0.0,54,0.00,,FEW080,0.00,VWS V14.01,2013-04-28 00:47:00,
2013-04-27 18:52:00,46.8,31.5,29.67,NW,313,0.0,0.0,55,0.00,,FEW080,0.00,VWS V14.01,2013-04-28 00:52:00,
2013-04-27 18:57:00,47.0,31.2,29.67,NW,315,0.0,0.0,54,0.00,,FEW080,0.00,VWS V14.01,2013-04-28 00:57:00,
2013-04-27 19:02:00,47.1,29.9,29.66,NW,323,0.0,0.0,51,0.00,,FEW080,0.00,VWS V14.01,2013-04-28 01:02:00,
2013-04-27 19:07:00,47.4,29.2,29.66,NNW,338,0.0,0.0,49,0.00,,FEW080,0.00,VWS V14.01,2013-04-28 01:07:00,
2013-04-27 19:12:00,47.7,31.4,29.66,NNW,338,0.0,0.0,53,0.00,,FEW080,0.00,VWS V14.01,2013-04-28 01:12:00,
2013-04-27 19:17:00,47.7,31.0,29.66,NNW,338,0.0,0.0,52,0.00,,FEW080,0.00,VWS V14.01,2013-04-28 01:17:00,
2013-04-27 19:22:00,47.9,30.7,29.66,ESE,119,0.0,0.0,51,0.00,,FEW080,0.00,VWS V14.01,2013-04-28 01:22:00,
2013-04-27 19:27:00,48.0,27.7,29.66,SE,139,4.0,6.0,45,0.00,,FEW080,0.00,VWS V14.01,2013-04-28 01:27:00,
2013-04-27 19:32:00,48.3,28.0,29.67,East,96,0.0,0.0,45,0.00,,FEW080,0.00,VWS V14.01,2013-04-28 01:32:00,
2013-04-27 19:37:00,48.3,28.5,29.67,East,96,0.0,0.0,46,0.00,,FEW080,0.00,VWS V14.01,2013-04-28 01:37:00,
2013-04-27 19:42:00,48.2,27.9,29.67,ENE,74,0.0,0.0,45,0.00,,FEW080,0.00,VWS V14.01,2013-04-28 01:42:00,
2013-04-27 19:47:00,48.2,27.9,29.68,NNW,342,0.0,2.0,45,0.00,,FEW080,0.00,VWS V14.01,2013-04-28 01:47:00,
2013-04-27 19:52:00,48.0,28.2,29.68,NNW,328,0.0,2.0,46,0.00,,FEW080,0.00,VWS V14.01,2013-04-28 01:52:00,
2013-04-27 19:57:00,48.0,28.8,29.68,NNW,328,0.0,2.0,47,0.00,,FEW080,0.00,VWS V14.01,2013-04-28 01:57:00,
2013-04-27 20:02:00,48.0,27.7,29.68,NNW,328,0.0,0.0,45,0.00,,FEW080,0.00,VWS V14.01,2013-04-28 02:02:00,
2013-04-27 20:07:00,47.9,28.7,29.68,NNW,328,0.0,0.0,47,0.00,,FEW080,0.00,VWS V14.01,2013-04-28 02:07:00,
2013-04-27 20:12:00,47.7,29.5,29.68,NW,326,0.0,0.0,49,0.00,,FEW080,0.00,VWS V14.01,2013-04-28 02:12:00,
2013-04-27 20:17:00,47.6,30.9,29.67,NW,326,0.0,0.0,52,0.00,,FEW080,0.00,VWS V14.01,2013-04-28 02:17:00,
2013-04-27 20:22:00,47.1,26.3,29.67,North,4,0.0,0.0,44,0.00,,FEW080,0.00,VWS V14.01,2013-04-28 02:22:00,
2013-04-27 20:27:00,47.6,25.7,29.67,NW,311,0.0,2.0,42,0.00,,FEW080,0.00,VWS V14.01,2013-04-28 02:27:00,
2013-04-27 20:32:00,48.0,25.4,29.66,ESE,110,0.0,0.0,41,0.00,,FEW080,0.00,VWS V14.01,2013-04-28 02:32:00,
2013-04-27 20:37:00,48.2,25.6,29.66,NW,316,0.0,3.0,41,0.00,,SCT190,0.00,VWS V14.01,2013-04-28 02:37:00,
2013-04-27 20:42:00,48.2,26.8,29.66,NNW,331,0.0,3.0,43,0.00,,SCT190,0.00,VWS V14.01,2013-04-28 02:42:00,
2013-04-27 20:47:00,47.9,28.1,29.67,NNW,328,0.0,3.0,46,0.00,,SCT190,0.00,VWS V14.01,2013-04-28 02:47:00,
2013-04-27 20:52:00,47.6,27.9,29.67,NNW,328,0.0,3.0,46,0.00,,SCT190,0.00,VWS V14.01,2013-04-28 02:52:00,
2013-04-27 20:57:00,47.1,27.9,29.67,NNW,328,0.0,3.0,47,0.00,,SCT190,0.00,VWS V14.01,2013-04-28 02:57:00,
2013-04-27 21:02:00,46.7,29.5,29.67,NNW,328,0.0,0.0,51,0.00,,SCT190,0.00,VWS V14.01,2013-04-28 03:02:00,
2013-04-27 21:07:00,46.1,29.0,29.67,NNW,328,0.0,0.0,51,0.00,,SCT190,0.00,VWS V14.01,2013-04-28 03:07:00,
2013-04-27 21:12:00,45.7,29.6,29.67,NNW,328,0.0,0.0,53,0.00,,SCT190,0.00,VWS V14.01,2013-04-28 03:12:00,
2013-04-27 21:17:00,45.1,29.9,29.68,NNW,328,0.0,0.0,55,0.00,,SCT190,0.00,VWS V14.01,2013-04-28 03:17:00,
2013-04-27 21:23:00,44.9,25.4,29.68,NNW,328,0.0,0.0,46,0.00,,SCT190,0.00,VWS V14.01,2013-04-28 03:23:00,
2013-04-27 21:28:00,45.8,25.7,29.68,ESE,118,0.0,0.0,45,0.00,,SCT190,0.00,VWS V14.01,2013-04-28 03:28:00,
2013-04-27 21:33:00,46.2,24.4,29.69,ESE,118,0.0,0.0,42,0.00,,FEW210,0.00,VWS V14.01,2013-04-28 03:33:00,
2013-04-27 21:38:00,46.5,24.7,29.69,NW,321,0.0,0.0,42,0.00,,FEW210,0.00,VWS V14.01,2013-04-28 03:38:00,
2013-04-27 21:43:00,46.7,26.0,29.69,NW,314,0.0,0.0,44,0.00,,FEW210,0.00,VWS V14.01,2013-04-28 03:43:00,
2013-04-27 21:48:00,46.8,24.4,29.69,NW,325,0.0,0.0,41,0.00,,FEW210,0.00,VWS V14.01,2013-04-28 03:48:00,
2013-04-27 21:53:00,46.8,26.0,29.69,NW,311,0.0,2.0,44,0.00,,FEW210,0.00,VWS V14.01,2013-04-28 03:53:00,
2013-04-27 21:58:00,47.1,25.8,29.69,NW,314,0.0,2.0,43,0.00,,FEW210,0.00,VWS V14.01,2013-04-28 03:58:00,
2013-04-27 22:01:00,47.1,25.2,29.70,NW,314,0.0,2.0,42,0.00,,FEW210,0.00,VWS V14.01,2013-04-28 04:01:00,
2013-04-27 22:06:00,46.8,24.9,29.70,NW,315,0.0,0.0,42,0.00,,FEW210,0.00,VWS V14.01,2013-04-28 04:06:00,
2013-04-27 22:11:00,46.7,26.0,29.70,NW,315,0.0,0.0,44,0.00,,FEW210,0.00,VWS V14.01,2013-04-28 04:11:00,
2013-04-27 22:16:00,46.5,24.7,29.72,NW,315,0.0,0.0,42,0.00,,FEW210,0.00,VWS V14.01,2013-04-28 04:16:00,
2013-04-27 22:21:00,46.2,26.6,29.72,NW,316,0.0,0.0,46,0.00,,FEW210,0.00,VWS V14.01,2013-04-28 04:21:00,
2013-04-27 22:26:00,46.1,25.4,29.72,NW,304,0.0,0.0,44,0.00,,FEW210,0.00,VWS V14.01,2013-04-28 04:26:00,
2013-04-27 22:31:00,45.8,24.0,29.72,NW,309,0.0,0.0,42,0.00,,FEW210,0.00,VWS V14.01,2013-04-28 04:31:00,
2013-04-27 22:36:00,46.2,23.2,29.72,NW,315,0.0,1.0,40,0.00,,SCT220,0.00,VWS V14.01,2013-04-28 04:36:00,
2013-04-27 22:41:00,46.7,24.8,29.72,NW,315,0.0,1.0,42,0.00,,SCT220,0.00,VWS V14.01,2013-04-28 04:41:00,
2013-04-27 22:46:00,46.7,23.7,29.73,NW,315,0.0,1.0,40,0.00,,SCT220,0.00,VWS V14.01,2013-04-28 04:46:00,
2013-04-27 22:51:00,46.7,24.8,29.73,NW,315,0.0,1.0,42,0.00,,SCT220,0.00,VWS V14.01,2013-04-28 04:51:00,
2013-04-27 22:56:00,46.4,25.7,29.73,NW,315,0.0,1.0,44,0.00,,SCT220,0.00,VWS V14.01,2013-04-28 04:56:00,
2013-04-27 23:01:00,46.2,23.8,29.74,NW,315,0.0,1.0,41,0.00,,SCT220,0.00,VWS V14.01,2013-04-28 05:01:00,
2013-04-27 23:06:00,46.2,23.8,29.74,NW,315,0.0,0.0,41,0.00,,SCT220,0.00,VWS V14.01,2013-04-28 05:06:00,
2013-04-27 23:11:00,46.2,23.8,29.74,NW,315,0.0,0.0,41,0.00,,SCT220,0.00,VWS V14.01,2013-04-28 05:11:00,
2013-04-27 23:16:00,46.1,26.0,29.76,NW,315,0.0,0.0,45,0.00,,SCT220,0.00,VWS V14.01,2013-04-28 05:16:00,
2013-04-27 23:21:00,45.8,27.7,29.76,NW,315,0.0,0.0,49,0.00,,SCT220,0.00,VWS V14.01,2013-04-28 05:21:00,
2013-04-27 23:26:00,45.5,28.0,29.76,NW,315,0.0,0.0,50,0.00,,SCT220,0.00,VWS V14.01,2013-04-28 05:26:00,
2013-04-27 23:31:00,45.1,27.1,29.76,NW,315,0.0,0.0,49,0.00,,SCT220,0.00,VWS V14.01,2013-04-28 05:31:00,
2013-04-27 23:36:00,44.8,27.3,29.76,NW,315,0.0,0.0,50,0.00,,SCT100,0.00,VWS V14.01,2013-04-28 05:36:00,
2013-04-27 23:41:00,44.5,27.0,29.76,NW,315,0.0,0.0,50,0.00,,SCT100,0.00,VWS V14.01,2013-04-28 05:41:00,
2013-04-27 23:46:00,44.3,24.3,29.77,NNW,330,0.0,0.0,45,0.00,,SCT100,0.00,VWS V14.01,2013-04-28 05:46:00,
2013-04-27 23:51:00,44.8,25.3,29.77,NNW,330,0.0,0.0,46,0.00,,SCT100,0.00,VWS V14.01,2013-04-28 05:51:00,
2013-04-27 23:56:00,44.8,26.8,29.77,NNW,330,0.0,0.0,49,0.00,,SCT100,0.00,VWS V14.01,2013-04-28 05:56:00,